Kuiper-00037

operational
NORAD ID: 63749 Int'l Des: 2025-088 Owner: KUIP Country: US Constellation: kuiper
LEOCIRCULAR

Über Kuiper-00037

Beschreibung wird geladen...

Live-Position

3D-Globus wird geladen...

Nächste Überflüge

Höhenverlauf

Altitude vs Time

uPlot chart will show altitude changes over time

Zweizeiliger Elementsatz

1 63749U 25088AB 25304.79433039 .00002152 00000-0 31092-3 0 9992
2 63749 51.9007 323.0359 0007822 318.0984 41.9379 14.79995569 29222
Epoch: 31. Okt. 2025 • Age: 12 hours

Aktueller Status

Höhe 638.0 km
Geschwindigkeit 7.54 km/s
Subsatellitenpunkt 39.18°N, 44.13°W
Startdatum 28. Apr. 2025
Alter 0.5 years
Typ internet

Technische Details

Klassifizierung Payload
Masse 490.00 kg
Trockenmasse 490.00 kg
Gesamtmasse 490.00 kg
Länge 1.80 m
Durchmesser 0.70 m
Spannweite 5.00 m
Form Box + 2 pan
Hersteller KUIP
Bus-Typ Kuiper
Phasenstatus In Orbit
Besitzer/Staat KUIP/US

Große Konstellationen

Loading constellations...